Bella Coola Airport
CYBD : now visible

Airfield :











YOU CAN JOIN US ON...

 
LOGIN :

Register | Disclaimer

   EN    FR    IT 

 









Legend :    VFR   Marginal VFR   IFR   Intensive IFR   Very Intensive IFR
Visi :
Ceiling :
>= 8 km
>= 3000ft
5 to 8 km
1000 to 3000 ft
1500m to 5 km
500 to 1000 ft
800 to 1500m
200 to 500 ft
< 800m
< 200 ft
Symbols :   Thunderstorms  Fog  Heavy snow  Heavy precipitations  Wind > 20 kt






- Airport Elevation : 117 ft
- IATA code : QBC


CYBD - Bella Coola

EXPIRED METARs :
  • 090100Z 26010G16KT 220V290 15SM VCSH FEW040 FEW056 SCT062TCU BKN076 17/11 A3025 RMK CU1CU2TCU2AC1 CU TR CB ASOCTD E LAST STFD OBS/NXT 091300Z SLP245
  • 090042Z 25010KT 15SM VCSH FEW040 FEW056 SCT062TCU 17/11 A3025 RMK CU1CU2TCU2 CU TR CB ASOCTD E SLP244
  • 090000Z 26010G15KT 15SM VCSH FEW035 FEW048 BKN060TCU BKN070 BKN260 17/11 A3025 RMK CU1CU1TCU5AC1CC1 CU TR CU TR CC TR OCNL -SHRA CB ASOCTD E SLP245

TAF N/A
CZVR FIR / North America



MET'MAP, your aeronautical weather chart ! - Copyright ORBIFLY December 2007 - Disclaimer

ORBIFLY MET'MAP TEAM :

Programming & Development : Alexandra Zaïnal
Concept & original design : Baudouin d'Aumeries
Assistance for programming : Marc-Olivier Méhu
Technical & hardware support : Manuel Goepfert

Contact : metmap@orbifly.com




SOURCES & CREDITS :

   NOAA       Earth
Advisory